Change the Weather History Date:

Friday, August 15, 2014

  Actual Average Record
Temperature  
Mean Temperature 65 °F 73 °F  
Max Temperature 80 °F 84 °F 103 °F (1943)
Min Temperature 49 °F 62 °F 43 °F (1964)
Degree Days  
Heating Degree Days 0 0  
Month to date heating degree days 0 0  
Since 1 June heating degree days 5 25  
Since 1 July heating degree days 3 1  
Cooling Degree Days 0 8  
Month to date cooling degree days 96 133  
Year to date cooling degree days 714 676  
Since 1 June cooling degree days 633 619  
Growing Degree Days 14 (Base 50)    
Moisture  
Dew Point 46 °F    
Average Humidity 58    
Maximum Humidity 86    
Minimum Humidity 30    
Precipitation  
Precipitation 0.00 in 0.10 in 1.20 in (1980)
Month to date precipitation 1.48 1.55  
Year to date precipitation 23.72 24.71  
Sea Level Pressure  
Sea Level Pressure 30.00 in    
Wind  
Wind Speed 6 mph (WNW)    
Max Wind Speed 15 mph    
Max Gust Speed 21 mph    
Visibility 10 miles    
Events      
T = Trace of Precipitation, MM = Missing Value Source: NWS Daily Summary

Daily Weather History Graph

Daily Weather History Graph

Search for Another Location

Airport or City:

Trip Planner

Search our weather history database for the weather conditions in past years. The results will help you decide how hot, cold, wet, or windy it might be!

Date:

Astronomy

Aug. 15, 2014 Rise Set
Actual Time 6:24 AM EDT 8:07 PM EDT
Civil Twilight 5:55 AM EDT 8:36 PM EDT
Nautical Twilight 5:21 AM EDT 9:10 PM EDT
Astronomical Twilight 4:43 AM EDT 9:47 PM EDT
Moon 11:10 PM EDT (8/15) 12:03 PM EDT (8/15)
Length of Visible Light 14h 40m
Length of Day
13h 42m
Waning Gibbous, 69% of the Moon is Illuminated
Aug 15
Waning Gibbous
Aug 17
Last Quarter
Aug 25
New
Sep 2
First Quarter
Sep 8
Full

Hourly Weather History & Observations

Time (EDT) Temp. Dew Point Humidity Pressure Visibility Wind Dir Wind Speed Gust Speed Precip Events Conditions
12:53 AM 64.0 °F 45.0 °F 50% 29.99 in 10.0 mi NNE 3.5 mph - N/A   Clear
1:53 AM 55.9 °F 46.9 °F 72% 30.00 in 10.0 mi Calm Calm - N/A   Clear
2:53 AM 54.0 °F 46.9 °F 77% 29.99 in 10.0 mi Calm Calm - N/A   Clear
3:53 AM 53.1 °F 46.0 °F 77% 29.99 in 10.0 mi West 5.8 mph - N/A   Clear
4:53 AM 51.1 °F 46.0 °F 83% 30.00 in 10.0 mi Calm Calm - N/A   Clear
5:53 AM 52.0 °F 45.0 °F 77% 30.00 in 10.0 mi WSW 3.5 mph - N/A   Clear
6:53 AM 48.9 °F 45.0 °F 86% 30.02 in 10.0 mi Calm Calm - N/A   Clear
7:53 AM 59.0 °F 48.9 °F 69% 30.03 in 10.0 mi WSW 6.9 mph - N/A   Clear
8:53 AM 64.9 °F 46.0 °F 50% 30.03 in 10.0 mi West 8.1 mph - N/A   Clear
10:53 AM 71.1 °F 45.0 °F 39% 30.03 in 10.0 mi WNW 9.2 mph - N/A   Clear
11:53 AM 73.0 °F 44.1 °F 35% 30.03 in 10.0 mi NW 12.7 mph 17.3 mph N/A   Clear
12:53 PM 75.0 °F 44.1 °F 33% 30.01 in 10.0 mi WNW 11.5 mph 20.7 mph N/A   Clear
1:53 PM 73.9 °F 44.1 °F 34% 30.00 in 10.0 mi North - - N/A   Clear
2:53 PM 78.1 °F 44.1 °F 30% 29.99 in 10.0 mi WNW 10.4 mph - N/A   Clear
3:53 PM 79.0 °F 44.1 °F 29% 29.97 in 10.0 mi West 11.5 mph 18.4 mph N/A   Clear
4:53 PM 78.1 °F 44.1 °F 30% 29.97 in 10.0 mi NNW 6.9 mph 20.7 mph N/A   Clear
5:53 PM 75.9 °F 45.0 °F 33% 29.97 in 10.0 mi NW 8.1 mph - N/A   Clear
6:53 PM 75.0 °F 46.0 °F 36% 29.97 in 10.0 mi NNW 9.2 mph - N/A   Clear
7:53 PM 73.0 °F 46.9 °F 39% 29.99 in 10.0 mi NW 5.8 mph - N/A   Clear
8:53 PM 64.9 °F 48.9 °F 56% 30.01 in 10.0 mi Calm Calm - N/A   Clear
9:53 PM 62.1 °F 48.9 °F 62% 30.02 in 10.0 mi NW 3.5 mph - N/A   Clear
10:53 PM 57.0 °F 48.9 °F 74% 30.03 in 10.0 mi SE 4.6 mph - N/A   Clear
11:53 PM 57.0 °F 48.9 °F 74% 30.03 in 10.0 mi WSW 3.5 mph - N/A   Clear